User: anonymous   Login
Location: Bonac
(42.8765°N, 0.9753°E)
Time: 00:32:29
(UTC+00:00)
Language:

Cosmos 1953 - Orbit

View from above orbital plane
View from above orbital plane
View from above satellite
View from above satellite

Ground track
Ground track

The orbit is defined by the following mean orbital elements,

1 19210U          26070.72047230 +.00000000 +00000-0 +32719-3 0 00001
2 19210  82.5103 156.2051 0012555 116.2836 243.9695 15.28565914    03
Epoch (UTC): 11 March 2026 17:17:28
Eccentricity: 0.0012555
inclination: 82.5103°
perigee height: 471 km
apogee height: 489 km
right ascension of ascending node: 156.2051°
argument of perigee: 116.2836°
revolutions per day: 15.28565914
mean anomaly at epoch: 243.9695°

The dashed part of the orbit path shows where the satellite is in the earth's shadow,  

DLR